TimeMST,TemperatureF,Dew PointF,Humidity,Sea Level PressureIn,VisibilityMPH,Wind Direction,Wind SpeedMPH,Gust SpeedMPH,PrecipitationIn,Events,Conditions,WindDirDegrees,DateUTC
12:53 AM,27.0,21.9,81,30.45,3.0,NW,4.6,-,N/A,,Haze,320,2013-01-09 07:53:00
1:53 AM,26.1,21.0,81,30.44,3.0,Variable,3.5,-,N/A,,Haze,0,2013-01-09 08:53:00
2:37 AM,24.8,21.2,86,30.38,2.5,Calm,Calm,-,N/A,,Overcast,0,2013-01-09 09:37:00
2:53 AM,26.1,21.0,81,30.45,3.0,NW,5.8,-,N/A,,Haze,320,2013-01-09 09:53:00
3:20 AM,24.8,21.2,86,30.38,2.5,Calm,Calm,-,N/A,,Overcast,0,2013-01-09 10:20:00
3:53 AM,21.9,19.0,89,30.45,2.5,Calm,Calm,-,N/A,,Mostly Cloudy,0,2013-01-09 10:53:00
4:43 AM,24.8,19.4,80,30.33,3.0,WSW,3.5,-,N/A,,Clear,240,2013-01-09 11:43:00
4:53 AM,24.1,19.0,81,30.41,3.0,SSW,5.8,-,N/A,,Haze,210,2013-01-09 11:53:00
5:34 AM,19.4,17.6,93,30.30,2.5,Calm,Calm,-,N/A,,Clear,0,2013-01-09 12:34:00
6:04 AM,21.2,19.4,93,30.29,1.8,Calm,Calm,-,N/A,,Clear,0,2013-01-09 13:04:00
6:22 AM,21.2,19.4,93,30.29,2.0,Calm,Calm,-,N/A,,Clear,0,2013-01-09 13:22:00
6:43 AM,19.4,15.8,86,30.28,1.5,NE,3.5,-,N/A,,Clear,50,2013-01-09 13:43:00
6:53 AM,19.0,18.0,96,30.37,1.0,Calm,Calm,-,N/A,,Clear,0,2013-01-09 13:53:00
7:22 AM,19.4,17.6,93,30.29,0.5,Calm,Calm,-,N/A,Fog,Light Freezing Fog,0,2013-01-09 14:22:00
7:35 AM,19.4,17.6,93,30.28,1.0,Calm,Calm,-,N/A,,Mist,0,2013-01-09 14:35:00
7:45 AM,19.4,17.6,93,30.28,0.5,Calm,Calm,-,N/A,Fog,Light Freezing Fog,0,2013-01-09 14:45:00
7:51 AM,19.4,17.6,93,30.29,0.2,Calm,Calm,-,N/A,Fog,Light Freezing Fog,0,2013-01-09 14:51:00
7:52 AM,19.9,19.0,96,30.38,0.2,Calm,Calm,-,N/A,Fog,Light Freezing Fog,0,2013-01-09 14:52:00
8:00 AM,19.4,17.6,93,30.29,0.2,Calm,Calm,-,N/A,Fog,Light Freezing Fog,0,2013-01-09 15:00:00
8:31 AM,19.4,15.8,86,30.29,1.0,East,4.6,-,N/A,,Mist,90,2013-01-09 15:31:00
8:48 AM,21.2,17.6,86,30.28,1.2,East,5.8,-,N/A,,Partly Cloudy,90,2013-01-09 15:48:00
8:53 AM,21.9,19.0,89,30.36,1.2,East,5.8,-,N/A,,Clear,100,2013-01-09 15:53:00
9:53 AM,26.1,24.1,92,30.33,3.0,SW,4.6,-,N/A,,Clear,220,2013-01-09 16:53:00
10:53 AM,32.0,21.9,66,30.29,5.0,SSE,6.9,-,N/A,,Haze,150,2013-01-09 17:53:00
11:53 AM,34.0,23.0,64,30.22,5.0,SSW,8.1,-,N/A,,Haze,200,2013-01-09 18:53:00
12:53 PM,33.1,23.0,66,30.16,2.5,Calm,Calm,-,N/A,,Haze,0,2013-01-09 19:53:00
1:02 PM,33.8,24.8,70,30.11,4.0,Calm,Calm,-,N/A,,Haze,0,2013-01-09 20:02:00
1:53 PM,32.0,23.0,69,30.14,3.0,North,4.6,-,N/A,,Haze,350,2013-01-09 20:53:00
2:53 PM,30.9,23.0,72,30.11,2.5,Calm,Calm,-,N/A,,Haze,0,2013-01-09 21:53:00
3:53 PM,27.0,21.0,78,30.13,2.0,NNW,6.9,-,N/A,,Haze,330,2013-01-09 22:53:00
4:53 PM,27.0,21.0,78,30.09,2.0,Calm,Calm,-,N/A,,Haze,0,2013-01-09 23:53:00
5:36 PM,26.6,21.2,80,30.00,3.0,Calm,Calm,-,N/A,,Haze,0,2013-01-10 00:36:00
5:53 PM,27.0,21.0,78,30.07,3.0,Calm,Calm,-,N/A,,Haze,0,2013-01-10 00:53:00
6:53 PM,26.1,21.0,81,30.03,3.0,Calm,Calm,-,N/A,,Haze,0,2013-01-10 01:53:00
7:53 PM,25.0,19.9,81,30.00,3.0,NW,4.6,-,N/A,,Haze,310,2013-01-10 02:53:00
8:53 PM,25.0,21.0,85,29.96,3.0,Calm,Calm,-,N/A,,Clear,0,2013-01-10 03:53:00
9:53 PM,28.0,21.9,78,29.91,3.0,Calm,Calm,-,N/A,,Haze,0,2013-01-10 04:53:00
11:53 PM,30.0,23.0,75,29.83,4.0,ESE,8.1,-,N/A,,Haze,110,2013-01-10 06:53:00